Weather History for Havre, MT

Change the Weather History Date:

Saturday, December 1, 2012

  Actual Average Record
Temperature  
Mean Temperature 29 °F 23 °F  
Max Temperature 39 °F 34 °F 67 °F (1885)
Min Temperature 19 °F 12 °F -36 °F (1897)
Degree Days  
Heating Degree Days 36 42  
Month to date heating degree days 36 42  
Since 1 July heating degree days 2023 2085  
Cooling Degree Days 0 0  
Month to date cooling degree days 0 0  
Year to date cooling degree days 507 387  
Moisture  
Dew Point 23 °F    
Average Humidity 88    
Maximum Humidity 100    
Minimum Humidity 75    
Precipitation  
Precipitation 0.00 in 0.01 in 0.28 in (1928)
Month to date precipitation 0.00 0.01  
Year to date precipitation 12.42 10.81  
Snow  
Snow 0.00 in 0.20 in 2.40 in (1972)
Month to date snowfall 0.0 0.2  
Since 1 July snowfall 18.0 7.8  
Snow Depth 0.00 in    
Sea Level Pressure  
Sea Level Pressure 29.70 in    
Wind  
Wind Speed 6 mph (ENE)    
Max Wind Speed 18 mph    
Max Gust Speed 20 mph    
Visibility 4 miles    
Events Fog    
T = Trace of Precipitation, MM = Missing Value Source: NWS Daily Summary

Daily Weather History Graph

Daily Weather History Graph

Search for Another Location

Airport:

Trip Planner

Search our weather history database for the weather conditions in past years. The results will help you decide how hot, cold, wet, or windy it might be!

Date:

Astronomy

Dec. 01, 2012 Rise Set
Actual Time 7:50 AM MST 4:25 PM MST
Civil Twilight 7:14 AM MST 5:01 PM MST
Nautical Twilight 6:35 AM MST 5:41 PM MST
Astronomical Twilight 5:57 AM MST 6:19 PM MST
Moon 7:23 PM MST (12/1) 10:02 AM MST (12/1)
Length of Visible Light 9h 47m
Length of Day
8h 35m
Waning Gibbous, 91% of the Moon is Illuminated
Dec 1
Waning Gibbous
Dec 6
Last Quarter
Dec 13
New
Dec 19
First Quarter
Dec 28
Full

Hourly Weather History & Observations

Time (MST) Temp. Windchill Dew Point Humidity Pressure Visibility Wind Dir Wind Speed Gust Speed Precip Events Conditions
12:53 AM 19.9 °F 12.1 °F 17.1 °F 89% 29.80 in 7.0 mi WNW 5.8 mph - N/A   Overcast
1:53 AM 19.9 °F - 17.1 °F 89% 29.78 in 6.0 mi Calm Calm - N/A   Overcast
2:53 AM 19.0 °F 12.3 °F 17.1 °F 92% 29.80 in 6.0 mi West 4.6 mph - N/A   Overcast
3:53 AM 19.0 °F - 17.1 °F 92% 29.79 in 6.0 mi Calm Calm - N/A   Overcast
4:53 AM 19.4 °F 14.3 °F 15.8 °F 86% 29.69 in 7.0 mi NW 3.5 mph - N/A   Overcast
5:53 AM 19.0 °F - 16.0 °F 88% 29.80 in 7.0 mi Calm Calm - N/A   Overcast
6:53 AM 19.9 °F 12.1 °F 18.0 °F 92% 29.78 in 5.0 mi ENE 5.8 mph - N/A   Overcast
7:30 AM 19.4 °F 10.4 °F 19.4 °F 100% 29.69 in 4.0 mi ENE 6.9 mph - N/A   Overcast
7:53 AM 21.0 °F 14.6 °F 19.0 °F 92% 29.79 in 4.0 mi East 4.6 mph - N/A   Overcast
8:14 AM 21.2 °F 13.6 °F 19.4 °F 93% 29.67 in 2.0 mi ENE 5.8 mph - N/A   Overcast
8:20 AM 21.2 °F 11.7 °F 19.4 °F 93% 29.67 in 1.2 mi ENE 8.1 mph - N/A   Overcast
8:31 AM 21.2 °F 11.7 °F 19.4 °F 93% 29.67 in 0.8 mi ENE 8.1 mph - N/A   Overcast
8:53 AM 23.0 °F 13.9 °F 21.0 °F 92% 29.77 in 1.0 mi ENE 8.1 mph - N/A   Overcast
9:03 AM 23.0 °F 13.1 °F 21.2 °F 93% 29.66 in 2.0 mi ENE 9.2 mph - N/A   Overcast
9:15 AM 23.0 °F 13.1 °F 21.2 °F 93% 29.66 in 3.0 mi ENE 9.2 mph - N/A   Overcast
9:53 AM 25.0 °F 18.1 °F 23.0 °F 92% 29.77 in 4.0 mi ENE 5.8 mph - N/A   Overcast
10:53 AM 27.0 °F 20.5 °F 25.0 °F 92% 29.75 in 5.0 mi NE 5.8 mph - N/A   Mostly Cloudy
11:05 AM 26.6 °F 18.2 °F 24.8 °F 93% 29.64 in 1.8 mi NE 8.1 mph - N/A   Overcast
11:13 AM 26.6 °F 17.5 °F 24.8 °F 93% 29.65 in 1.0 mi NE 9.2 mph - N/A   Overcast
11:38 AM 26.6 °F 18.2 °F 24.8 °F 93% 29.64 in 1.5 mi East 8.1 mph - N/A   Overcast
11:46 AM 26.6 °F 18.2 °F 24.8 °F 93% 29.64 in 0.8 mi ENE 8.1 mph - N/A   Overcast
11:53 AM 27.0 °F 19.5 °F 25.0 °F 92% 29.74 in 0.8 mi ENE 6.9 mph - N/A   Overcast
12:14 PM 26.6 °F 20.0 °F 24.8 °F 93% 29.62 in 1.5 mi ENE 5.8 mph - N/A   Overcast
12:37 PM 28.4 °F 21.2 °F 26.6 °F 93% 29.62 in 0.8 mi East 6.9 mph - N/A   Overcast
12:53 PM 28.0 °F 21.7 °F 26.1 °F 92% 29.72 in 0.5 mi East 5.8 mph - N/A Fog Light Freezing Fog
1:03 PM 28.4 °F 22.2 °F 26.6 °F 93% 29.62 in 1.5 mi ENE 5.8 mph - N/A   Overcast
1:13 PM 28.4 °F 21.2 °F 26.6 °F 93% 29.61 in 1.0 mi ENE 6.9 mph - N/A   Overcast
1:20 PM 28.4 °F 22.2 °F 26.6 °F 93% 29.61 in 0.5 mi East 5.8 mph - N/A Fog Light Freezing Fog
1:53 PM 28.0 °F 19.3 °F 26.1 °F 92% 29.70 in 0.2 mi East 9.2 mph - N/A Fog Light Freezing Fog
2:53 PM 28.0 °F 20.8 °F 26.1 °F 92% 29.69 in 0.2 mi ENE 6.9 mph - N/A Fog Light Freezing Fog
3:53 PM 27.0 °F 19.5 °F 26.1 °F 96% 29.69 in 0.2 mi East 6.9 mph - N/A Fog Light Freezing Fog
4:53 PM 27.0 °F 18.7 °F 26.1 °F 96% 29.68 in 0.5 mi East 8.1 mph - N/A Fog Light Freezing Fog
5:53 PM 27.0 °F 21.6 °F 25.0 °F 92% 29.69 in 1.8 mi East 4.6 mph - N/A   Mostly Cloudy
5:56 PM 26.6 °F 21.2 °F 24.8 °F 93% 29.59 in 3.0 mi ESE 4.6 mph - N/A   Mostly Cloudy
6:06 PM 26.6 °F 19.1 °F 26.6 °F 100% 29.59 in 7.0 mi East 6.9 mph - N/A   Scattered Clouds
6:53 PM 28.0 °F 22.8 °F 25.0 °F 88% 29.70 in 10.0 mi West 4.6 mph - N/A   Clear
7:53 PM 36.0 °F 26.7 °F 30.9 °F 82% 29.70 in 10.0 mi SW 15.0 mph - N/A   Clear
8:53 PM 37.0 °F 28.1 °F 30.0 °F 76% 29.70 in 10.0 mi SW 15.0 mph - N/A   Clear
9:53 PM 36.0 °F 28.5 °F 28.9 °F 76% 29.68 in 10.0 mi SW 10.4 mph - N/A   Clear
10:53 PM 36.0 °F 32.1 °F 28.0 °F 73% 29.68 in 10.0 mi SSW 4.6 mph - N/A   Clear
11:53 PM 35.1 °F 31.0 °F 28.0 °F 76% 29.69 in 10.0 mi West 4.6 mph - N/A   Clear